TimeCST,TemperatureF,Dew PointF,Humidity,Sea Level PressureIn,VisibilityMPH,Wind Direction,Wind SpeedMPH,Gust SpeedMPH,PrecipitationIn,Events,Conditions,WindDirDegrees,DateUTC
12:53 AM,25.0,21.0,85,29.85,10.0,SW,11.5,-,N/A,,Clear,230,2013-02-13 06:53:00
1:53 AM,26.1,21.9,84,29.84,10.0,SW,9.2,-,N/A,,Mostly Cloudy,230,2013-02-13 07:53:00
2:53 AM,26.1,21.0,81,29.81,10.0,SW,11.5,-,N/A,,Clear,230,2013-02-13 08:53:00
3:53 AM,25.0,21.0,85,29.80,9.0,WSW,10.4,-,N/A,,Clear,240,2013-02-13 09:53:00
4:53 AM,25.0,21.0,85,29.79,9.0,West,9.2,-,N/A,,Clear,260,2013-02-13 10:53:00
5:53 AM,25.0,21.9,88,29.77,8.0,SW,3.5,-,N/A,,Clear,220,2013-02-13 11:53:00
6:53 AM,21.0,19.0,92,29.77,5.0,South,6.9,-,N/A,,Clear,190,2013-02-13 12:53:00
7:53 AM,23.0,21.0,92,29.77,5.0,SSW,5.8,-,N/A,,Clear,210,2013-02-13 13:53:00
8:53 AM,26.1,23.0,88,29.77,6.0,SW,3.5,-,N/A,,Overcast,220,2013-02-13 14:53:00
9:53 AM,28.0,25.0,88,29.75,6.0,SSW,3.5,-,N/A,,Overcast,200,2013-02-13 15:53:00
10:53 AM,30.0,26.1,85,29.75,7.0,SSW,3.5,-,N/A,,Overcast,210,2013-02-13 16:53:00
11:53 AM,30.9,26.1,82,29.73,7.0,South,9.2,-,N/A,,Overcast,190,2013-02-13 17:53:00
12:53 PM,33.1,26.1,75,29.71,10.0,SW,10.4,-,N/A,,Overcast,220,2013-02-13 18:53:00
1:53 PM,35.1,27.0,72,29.70,10.0,SSW,11.5,-,N/A,,Overcast,210,2013-02-13 19:53:00
2:53 PM,35.1,27.0,72,29.70,10.0,WSW,9.2,-,N/A,,Overcast,240,2013-02-13 20:53:00
3:53 PM,36.0,28.0,73,29.70,10.0,WSW,8.1,-,N/A,,Overcast,240,2013-02-13 21:53:00
4:53 PM,35.1,27.0,72,29.70,10.0,West,10.4,-,N/A,,Overcast,260,2013-02-13 22:53:00
5:53 PM,33.1,28.0,82,29.71,10.0,WSW,5.8,-,N/A,,Overcast,250,2013-02-13 23:53:00
6:53 PM,30.0,26.1,85,29.71,10.0,SW,4.6,-,N/A,,Partly Cloudy,230,2013-02-14 00:53:00
7:53 PM,30.9,27.0,85,29.72,10.0,SW,5.8,-,N/A,,Mostly Cloudy,220,2013-02-14 01:53:00
8:53 PM,32.0,27.0,82,29.71,10.0,SW,5.8,-,N/A,,Overcast,220,2013-02-14 02:53:00
9:53 PM,32.0,28.0,85,29.70,10.0,SSW,4.6,-,N/A,,Overcast,210,2013-02-14 03:53:00
10:53 PM,32.0,27.0,82,29.70,10.0,WSW,4.6,-,N/A,,Overcast,240,2013-02-14 04:53:00
11:53 PM,33.1,28.0,82,29.69,10.0,SW,5.8,-,N/A,,Overcast,220,2013-02-14 05:53:00